Zurück zum Katalog

CZ-4B DEB

AktivSSO
NORAD 35404·DEBRIS·🇨🇳 China

Gestartet May 15, 2002 von Taiyuan Satellite Launch Center

Loading…

Nächste Überflüge (nächste 24 Stunden)

TLE

AktuellSource: Space-Track

Epoche: Sep 14, 2026, 09:18 UTC

1 35404U 02024J   26257.38816154  .00000018  00000-0  29105-4 0  9992
2 35404  98.8060 304.6892 0051378 308.4804 116.3941 14.20018960254582

Verfolge CZ-4B DEB in Echtzeit mit AllMySat

Download on the App Store